Location: G�ndlingen
(48.0142°N, 7.6396°E)
Time: 02:57:22
(UTC+00:00)

Cosmos 1933 - Pass Details

Date: 05 July 2020
Orbit: 547 x 563 km, 82.5° (Epoch: 04 August)

Event Time Altitude Azimuth Distance (km) Brightness Sun altitude
Rises 23:31:06 0° 344° (NNW) 2,730 8.3 -19.3°
Reaches altitude 10° 23:33:20 10° 338° (NNW) 1,832 7.0 -19.3°
Maximum altitude 23:37:09 44° 267° (W) 773 4.0 -19.3°
Enters shadow 23:38:00 38° 233° (SW) 854 3.9 -19.3°
